Location: ????????
(55.4000°N, 39.1167°E)
Time: 08:00:45
(UTC+00:00)

Cosmos 1624 Rocket - Pass Details

Date: 19 May 2025
Orbit: 753 x 779 km, 74.0° (Epoch: 23 June)

Event Time Altitude Azimuth Distance (km) Brightness Sun altitude
Rises 21:03:07 0° 332° (NNW) 3,223 8.5 -14.5°
Reaches altitude 10° 21:05:30 10° 334° (NNW) 2,296 7.6 -14.6°
Maximum altitude 21:10:43 78° 61° (ENE) 784 4.1 -14.6°
Enters shadow 21:14:44 17° 146° (SSE) 1,839 5.5 -14.6°
